Location: Treviso
(45.6669°N, 12.2430°E)
Time: 08:15:02
(UTC+02:00)

ISS - Pass Details

Date: 19 May 2018
Orbit: 402 x 407 km, 51.6° (Epoch: 23 May)

Event Time Altitude Azimuth Distance (km) Brightness Sun altitude
Exits shadow 02:30:09 - 299° (WNW) 1,539 -0.8 -22.0°
Reaches altitude 10° 02:30:22 10° 301° (WNW) 1,459 -0.9 -22.0°
Maximum altitude 02:33:14 27° 2° (N) 808 -1.7 -21.8°
Drops below altitude 10° 02:36:06 10° 64° (ENE) 1,458 -0.4 -21.6°
Sets 02:38:22 0° 77° (ENE) 2,317 0.5 -21.4°
